| time (UTC) | temp F | wind direction | speed knots | gust knots | rain 1hr in | rain 24hr in | rain mn in | humidity % | barometer mb |
| 20260903123015 | 75 | 68 | 1.7 | 4.3 | 0.00 | 0.00 | 0.00 | 89 | 1013.6 |
| 20260903121515 | 76 | 104 | 6.1 | 7.0 | 0.00 | 0.00 | 0.00 | 88 | 1013.7 |
| 20260903121015 | 77 | 117 | 2.6 | 2.6 | 0.00 | 0.00 | 0.00 | 86 | 1013.6 |
| 20260903120015 | 76 | 222 | 1.7 | 2.6 | 0.00 | 0.00 | 0.00 | 87 | 1013.5 |
| 20260903115515 | 76 | 126 | 0.9 | 3.5 | 0.00 | 0.00 | 0.00 | 88 | 1013.5 |
| 20260903115015 | 76 | 18 | 1.7 | 3.5 | 0.00 | 0.00 | 0.00 | 88 | 1013.4 |
| 20260903114515 | 76 | 34 | 2.6 | 4.3 | 0.00 | 0.00 | 0.00 | 88 | 1013.4 |
| 20260903114015 | 76 | 36 | 4.3 | 4.3 | 0.00 | 0.00 | 0.00 | 88 | 1013.4 |
| 20260903113515 | 76 | 81 | 2.6 | 5.2 | 0.00 | 0.00 | 0.00 | 87 | 1013.5 |
| 20260903113015 | 76 | 115 | 3.5 | 6.1 | 0.00 | 0.00 | 0.00 | 88 | 1013.6 |
| 20260903112515 | 76 | 105 | 4.3 | 6.1 | 0.00 | 0.00 | 0.00 | 88 | 1013.6 |
| 20260903111515 | 76 | 97 | 4.3 | 4.3 | 0.00 | 0.00 | 0.00 | 88 | 1013.5 |
| 20260903111015 | 76 | 84 | 4.3 | 4.3 | 0.00 | 0.00 | 0.00 | 88 | 1013.5 |
| 20260903110515 | 76 | 84 | 2.6 | 4.3 | 0.00 | 0.00 | 0.00 | 88 | 1013.5 |
| 20260903110014 | 76 | 84 | 2.6 | 5.2 | 0.00 | 0.00 | 0.00 | 88 | 1013.4 |
| 20260903105515 | 76 | 107 | 4.3 | 6.1 | 0.00 | 0.00 | 0.00 | 87 | 1013.4 |
| 20260903104515 | 76 | 99 | 4.3 | 7.0 | 0.00 | 0.00 | 0.00 | 87 | 1013.3 |
| 20260903104014 | 77 | 104 | 6.1 | 7.0 | 0.00 | 0.00 | 0.00 | 87 | 1013.3 |
| 20260903103515 | 77 | 103 | 5.2 | 7.8 | 0.00 | 0.00 | 0.00 | 86 | 1013.3 |
| 20260903102514 | 76 | 106 | 5.2 | 6.1 | 0.00 | 0.00 | 0.00 | 87 | 1013.4 |
| 20260903102044 | 76 | 86 | 3.5 | 3.5 | 0.00 | 0.00 | 0.00 | 86 | 1013.4 |
| 20260903101514 | 76 | 74 | 2.6 | 4.3 | 0.00 | 0.00 | 0.00 | 86 | 1013.5 |
| 20260903101014 | 77 | 90 | 3.5 | 5.2 | 0.00 | 0.00 | 0.00 | 85 | 1013.4 |
| 20260903100014 | 77 | 98 | 4.3 | 4.3 | 0.00 | 0.00 | 0.00 | 85 | 1013.5 |
| 20260903095014 | 76 | 101 | 3.5 | 3.5 | 0.00 | 0.00 | 0.00 | 86 | 1013.5 |
| 20260903094514 | 76 | 104 | 2.6 | 3.5 | 0.00 | 0.00 | 0.00 | 86 | 1013.4 |
| 20260903094014 | 76 | 45 | 3.5 | 3.5 | 0.00 | 0.00 | 0.00 | 86 | 1013.4 |
| 20260903093513 | 76 | 93 | 2.6 | 3.5 | 0.00 | 0.00 | 0.00 | 86 | 1013.3 |
| 20260903092513 | 76 | 180 | 1.7 | 2.6 | 0.00 | 0.00 | 0.00 | 86 | 1013.4 |
| 20260903092013 | 76 | 242 | 1.7 | 4.3 | 0.00 | 0.00 | 0.00 | 86 | 1013.4 |
| 20260903091513 | 76 | 246 | 4.3 | 4.3 | 0.00 | 0.00 | 0.00 | 86 | 1013.4 |
| 20260903090013 | 76 | 100 | 5.2 | 6.1 | 0.00 | 0.00 | 0.00 | 86 | 1013.3 |
| 20260903085513 | 76 | 85 | 4.3 | 6.1 | 0.00 | 0.00 | 0.00 | 85 | 1013.2 |
| 20260903084513 | 77 | 79 | 4.3 | 6.1 | 0.00 | 0.00 | 0.00 | 85 | 1013.2 |
| 20260903084013 | 77 | 86 | 4.3 | 6.1 | 0.00 | 0.00 | 0.00 | 84 | 1013.2 |
| 20260903083513 | 77 | 87 | 4.3 | 7.8 | 0.00 | 0.00 | 0.00 | 84 | 1013.2 |
| 20260903083013 | 77 | 83 | 6.1 | 8.7 | 0.00 | 0.00 | 0.00 | 84 | 1013.2 |
| 20260903082513 | 77 | 100 | 7.8 | 8.7 | 0.00 | 0.00 | 0.00 | 84 | 1013.3 |
| 20260903081513 | 77 | 93 | 6.1 | 7.8 | 0.00 | 0.00 | 0.00 | 82 | 1013.4 |
| 20260903080512 | 77 | 90 | 3.5 | 5.2 | 0.00 | 0.00 | 0.00 | 82 | 1013.4 |
| 20260903080012 | 77 | 89 | 4.3 | 5.2 | 0.00 | 0.00 | 0.00 | 82 | 1013.4 |
| 20260903075512 | 78 | 77 | 4.3 | 5.2 | 0.00 | 0.00 | 0.00 | 81 | 1013.3 |
| 20260903075012 | 78 | 99 | 4.3 | 7.0 | 0.00 | 0.00 | 0.00 | 81 | 1013.3 |
| 20260903074013 | 78 | 94 | 6.1 | 6.1 | 0.00 | 0.00 | 0.00 | 80 | 1013.3 |
| 20260903073013 | 78 | 102 | 6.1 | 6.1 | 0.00 | 0.00 | 0.00 | 80 | 1013.4 |
| 20260903072512 | 78 | 97 | 5.2 | 6.1 | 0.00 | 0.00 | 0.00 | 80 | 1013.3 |
| 20260903072012 | 78 | 98 | 3.5 | 7.0 | 0.00 | 0.00 | 0.00 | 79 | 1013.4 |
| 20260903071012 | 79 | 90 | 6.1 | 8.7 | 0.00 | 0.00 | 0.00 | 78 | 1013.5 |
| 20260903070512 | 79 | 97 | 6.1 | 8.7 | 0.00 | 0.00 | 0.00 | 78 | 1013.5 |
| 20260903065512 | 79 | 108 | 7.8 | 8.7 | 0.00 | 0.00 | 0.00 | 77 | 1013.6 |
| 20260903065012 | 80 | 118 | 8.7 | 10.4 | 0.00 | 0.00 | 0.00 | 76 | 1013.6 |
| 20260903064512 | 80 | 103 | 7.8 | 10.4 | 0.00 | 0.00 | 0.00 | 76 | 1013.6 |
| 20260903064012 | 80 | 116 | 7.8 | 12.2 | 0.00 | 0.00 | 0.00 | 75 | 1013.7 |
| 20260903063512 | 80 | 108 | 8.7 | 13.0 | 0.00 | 0.00 | 0.00 | 74 | 1013.7 |
| 20260903063012 | 81 | 105 | 9.6 | 13.0 | 0.00 | 0.00 | 0.00 | 74 | 1013.7 |
| 20260903062512 | 81 | 109 | 9.6 | 13.0 | 0.00 | 0.00 | 0.00 | 73 | 1013.8 |
| 20260903061511 | 81 | 124 | 8.7 | 9.6 | 0.00 | 0.00 | 0.00 | 71 | 1013.9 |
| 20260903060511 | 81 | 107 | 6.1 | 9.6 | 0.00 | 0.00 | 0.00 | 70 | 1013.9 |
| 20260903060011 | 82 | 111 | 6.1 | 11.3 | 0.00 | 0.00 | 0.00 | 69 | 1013.9 |
| 20260903055512 | 82 | 111 | 7.8 | 11.3 | 0.00 | 0.00 | 0.00 | 69 | 1013.9 |
| 20260903055011 | 82 | 113 | 7.0 | 10.4 | 0.00 | 0.00 | 0.00 | 68 | 1013.9 |
| 20260903054512 | 82 | 110 | 7.8 | 9.6 | 0.00 | 0.00 | 0.00 | 68 | 1013.9 |
| 20260903054011 | 82 | 110 | 9.6 | 9.6 | 0.00 | 0.00 | 0.00 | 67 | 1013.9 |
| 20260903053511 | 82 | 106 | 7.0 | 9.6 | 0.00 | 0.00 | 0.00 | 67 | 1013.9 |
| 20260903053012 | 82 | 111 | 7.0 | 10.4 | 0.00 | 0.00 | 0.00 | 66 | 1013.9 |
| 20260903052511 | 83 | 106 | 7.8 | 11.3 | 0.00 | 0.00 | 0.00 | 66 | 1013.9 |
| 20260903051511 | 83 | 103 | 7.8 | 11.3 | 0.00 | 0.00 | 0.00 | 66 | 1013.8 |
| 20260903051011 | 83 | 104 | 8.7 | 9.6 | 0.00 | 0.00 | 0.00 | 66 | 1013.9 |
| 20260903050511 | 83 | 102 | 7.0 | 8.7 | 0.00 | 0.00 | 0.00 | 65 | 1013.9 |
| 20260903050011 | 83 | 104 | 7.8 | 10.4 | 0.00 | 0.00 | 0.00 | 65 | 1013.9 |
| 20260903045511 | 83 | 109 | 8.7 | 10.4 | 0.00 | 0.00 | 0.00 | 64 | 1013.9 |
| 20260903045011 | 84 | 120 | 7.0 | 10.4 | 0.00 | 0.00 | 0.00 | 64 | 1013.7 |
| 20260903044511 | 84 | 124 | 7.0 | 12.2 | 0.00 | 0.00 | 0.00 | 63 | 1013.7 |
| 20260903044011 | 84 | 124 | 7.8 | 14.8 | 0.00 | 0.00 | 0.00 | 63 | 1013.7 |
| 20260903043010 | 85 | 127 | 8.7 | 14.8 | 0.00 | 0.00 | 0.00 | 63 | 1013.7 |
| 20260903042511 | 85 | 118 | 12.2 | 14.8 | 0.00 | 0.00 | 0.00 | 62 | 1013.6 |
| 20260903042010 | 85 | 118 | 13.9 | 15.6 | 0.00 | 0.00 | 0.00 | 62 | 1013.6 |
| 20260903041010 | 86 | 116 | 13.0 | 15.6 | 0.00 | 0.00 | 0.00 | 60 | 1013.7 |
| 20260903040510 | 87 | 117 | 11.3 | 16.5 | 0.00 | 0.00 | 0.00 | 59 | 1013.6 |
| 20260903040010 | 87 | 119 | 12.2 | 16.5 | 0.00 | 0.00 | 0.00 | 58 | 1013.6 |
| 20260903035510 | 87 | 119 | 13.0 | 16.5 | 0.00 | 0.00 | 0.00 | 57 | 1013.5 |
| 20260903035010 | 87 | 118 | 9.6 | 15.6 | 0.00 | 0.00 | 0.00 | 56 | 1013.6 |
| 20260903034510 | 88 | 0 | 0.0 | 14.8 | 0.00 | 0.00 | 0.00 | 55 | 1013.6 |
| 20260903033510 | 88 | 117 | 8.7 | 14.8 | 0.00 | 0.00 | 0.00 | 53 | 1013.5 |
| 20260903033010 | 88 | 117 | 9.6 | 16.5 | 0.00 | 0.00 | 0.00 | 53 | 1013.5 |
| 20260903032510 | 89 | 117 | 11.3 | 16.5 | 0.00 | 0.00 | 0.00 | 52 | 1013.5 |
| 20260903032010 | 89 | 116 | 9.6 | 15.6 | 0.00 | 0.00 | 0.00 | 52 | 1013.4 |
| 20260903031510 | 89 | 117 | 8.7 | 15.6 | 0.00 | 0.00 | 0.00 | 52 | 1013.5 |
| 20260903030509 | 88 | 108 | 6.1 | 13.0 | 0.00 | 0.00 | 0.00 | 53 | 1013.4 |
| 20260903030010 | 88 | 117 | 7.8 | 13.0 | 0.00 | 0.00 | 0.00 | 53 | 1013.3 |
| 20260903025010 | 89 | 109 | 6.1 | 10.4 | 0.00 | 0.00 | 0.00 | 53 | 1013.2 |
| 20260903024509 | 89 | 114 | 10.4 | 10.4 | 0.00 | 0.00 | 0.00 | 53 | 1013.2 |
| 20260903024009 | 89 | 109 | 7.0 | 9.6 | 0.00 | 0.00 | 0.00 | 53 | 1013.1 |
| 20260903023509 | 89 | 96 | 7.8 | 9.6 | 0.00 | 0.00 | 0.00 | 52 | 1013.1 |
| 20260903022510 | 89 | 107 | 6.1 | 8.7 | 0.00 | 0.00 | 0.00 | 52 | 1013.0 |
| 20260903022009 | 89 | 113 | 7.0 | 8.7 | 0.00 | 0.00 | 0.00 | 52 | 1012.9 |
| 20260903021509 | 90 | 104 | 6.1 | 7.8 | 0.00 | 0.00 | 0.00 | 51 | 1013.0 |
| 20260903021009 | 90 | 101 | 7.8 | 9.6 | 0.00 | 0.00 | 0.00 | 51 | 1012.9 |
| 20260903020509 | 90 | 113 | 7.0 | 10.4 | 0.00 | 0.00 | 0.00 | 51 | 1012.8 |
| 20260903020009 | 90 | 115 | 7.8 | 10.4 | 0.00 | 0.00 | 0.00 | 51 | 1012.7 |
| 20260903015509 | 90 | 120 | 7.0 | 9.6 | 0.00 | 0.00 | 0.00 | 51 | 1012.6 |
| 20260903015009 | 91 | 111 | 7.0 | 9.6 | 0.00 | 0.00 | 0.00 | 51 | 1012.5 |
| 20260903014509 | 91 | 123 | 8.7 | 11.3 | 0.00 | 0.00 | 0.00 | 50 | 1012.4 |
| 20260903014009 | 91 | 122 | 7.8 | 11.3 | 0.00 | 0.00 | 0.00 | 49 | 1012.4 |
| 20260903013009 | 91 | 114 | 9.6 | 14.8 | 0.00 | 0.00 | 0.00 | 47 | 1012.3 |
| 20260903012509 | 92 | 105 | 9.6 | 15.6 | 0.00 | 0.00 | 0.00 | 46 | 1012.2 |
| 20260903012010 | 92 | 109 | 7.8 | 15.6 | 0.00 | 0.00 | 0.00 | 45 | 1012.1 |
| 20260903011509 | 92 | 104 | 7.8 | 9.6 | 0.00 | 0.00 | 0.00 | 44 | 1012.1 |
| 20260903011009 | 92 | 92 | 7.0 | 11.3 | 0.00 | 0.00 | 0.00 | 43 | 1012.1 |
| 20260903010508 | 93 | 95 | 7.0 | 12.2 | 0.00 | 0.00 | 0.00 | 43 | 1012.0 |
| 20260903010008 | 93 | 89 | 9.6 | 12.2 | 0.00 | 0.00 | 0.00 | 43 | 1011.9 |
| 20260903005508 | 93 | 103 | 8.7 | 12.2 | 0.00 | 0.00 | 0.00 | 42 | 1012.0 |
| 20260903005008 | 93 | 107 | 6.1 | 12.2 | 0.00 | 0.00 | 0.00 | 41 | 1012.0 |
| 20260903004508 | 94 | 95 | 7.0 | 13.0 | 0.00 | 0.00 | 0.00 | 41 | 1011.9 |
| 20260903004008 | 94 | 95 | 7.8 | 13.0 | 0.00 | 0.00 | 0.00 | 41 | 1011.9 |
| 20260903003508 | 94 | 96 | 9.6 | 16.5 | 0.00 | 0.00 | 0.00 | 40 | 1011.9 |
| 20260903003008 | 95 | 116 | 11.3 | 16.5 | 0.00 | 0.00 | 0.00 | 40 | 1011.8 |
| 20260903002509 | 95 | 98 | 12.2 | 13.9 | 0.00 | 0.00 | 0.00 | 40 | 1011.8 |
| 20260903001508 | 95 | 94 | 8.7 | 12.2 | 0.00 | 0.00 | 0.00 | 40 | 1011.9 |
| 20260903001008 | 95 | 90 | 8.7 | 12.2 | 0.00 | 0.00 | 0.00 | 40 | 1011.9 |
| 20260903000511 | 95 | 111 | 11.3 | 13.0 | 0.00 | 0.00 | 0.00 | 39 | 1011.8 |
| 20260903000008 | 95 | 111 | 10.4 | 13.9 | 0.00 | 0.00 | 0.00 | 39 | 1011.8 |
| 20260902235508 | 95 | 109 | 8.7 | 13.9 | 0.00 | 0.00 | 0.00 | 39 | 1011.8 |
| 20260902235008 | 96 | 91 | 7.0 | 14.8 | 0.00 | 0.00 | 0.00 | 39 | 1011.9 |
| 20260902234508 | 96 | 108 | 10.4 | 14.8 | 0.00 | 0.00 | 0.00 | 39 | 1011.8 |
| 20260902234008 | 96 | 82 | 7.8 | 15.6 | 0.00 | 0.00 | 0.00 | 39 | 1011.9 |
| 20260902233008 | 96 | 75 | 13.0 | 15.6 | 0.00 | 0.00 | 0.00 | 38 | 1011.8 |
| 20260902232508 | 96 | 84 | 13.0 | 15.6 | 0.00 | 0.00 | 0.00 | 39 | 1011.7 |
| 20260902231007 | 96 | 63 | 12.2 | 16.5 | 0.00 | 0.00 | 0.00 | 39 | 1011.7 |
| 20260902230507 | 96 | 76 | 10.4 | 13.9 | 0.00 | 0.00 | 0.00 | 39 | 1011.8 |
| 20260902230007 | 96 | 100 | 9.6 | 14.8 | 0.00 | 0.00 | 0.00 | 38 | 1011.8 |
| 20260902225507 | 96 | 85 | 9.6 | 19.1 | 0.00 | 0.00 | 0.00 | 39 | 1011.9 |
| 20260902225007 | 96 | 72 | 8.7 | 19.1 | 0.00 | 0.00 | 0.00 | 39 | 1011.9 |
| 20260902224007 | 97 | 83 | 11.3 | 17.4 | 0.00 | 0.00 | 0.00 | 39 | 1011.9 |
| 20260902223507 | 96 | 103 | 10.4 | 17.4 | 0.00 | 0.00 | 0.00 | 39 | 1012.0 |
| 20260902223007 | 96 | 68 | 8.7 | 15.6 | 0.00 | 0.00 | 0.00 | 39 | 1012.0 |
| 20260902222507 | 96 | 67 | 9.6 | 20.0 | 0.00 | 0.00 | 0.00 | 39 | 1012.1 |
| 20260902222007 | 96 | 99 | 13.0 | 20.0 | 0.00 | 0.00 | 0.00 | 39 | 1012.0 |
| 20260902221507 | 96 | 55 | 17.4 | 17.4 | 0.00 | 0.00 | 0.00 | 38 | 1012.0 |
| 20260902221007 | 98 | 84 | 11.3 | 11.3 | 0.00 | 0.00 | 0.00 | 37 | 1012.2 |
| 20260902220506 | 97 | 108 | 5.2 | 13.0 | 0.00 | 0.00 | 0.00 | 38 | 1012.3 |
| 20260902220006 | 96 | 93 | 1.7 | 15.6 | 0.00 | 0.00 | 0.00 | 38 | 1012.3 |
| 20260902215506 | 96 | 76 | 7.8 | 15.6 | 0.00 | 0.00 | 0.00 | 38 | 1012.4 |
| 20260902215006 | 96 | 96 | 6.1 | 13.9 | 0.00 | 0.00 | 0.00 | 38 | 1012.4 |
| 20260902214006 | 96 | 66 | 11.3 | 17.4 | 0.00 | 0.00 | 0.00 | 37 | 1012.5 |
| 20260902213006 | 96 | 82 | 10.4 | 14.8 | 0.00 | 0.00 | 0.00 | 38 | 1012.5 |
| 20260902212506 | 96 | 88 | 11.3 | 14.8 | 0.00 | 0.00 | 0.00 | 39 | 1012.5 |
| 20260902212006 | 95 | 92 | 13.0 | 18.2 | 0.00 | 0.00 | 0.00 | 39 | 1012.6 |
| 20260902211506 | 95 | 71 | 9.6 | 18.2 | 0.00 | 0.00 | 0.00 | 40 | 1012.7 |
| 20260902211006 | 96 | 31 | 11.3 | 14.8 | 0.00 | 0.00 | 0.00 | 39 | 1012.7 |
| 20260902210506 | 96 | 95 | 11.3 | 14.8 | 0.00 | 0.00 | 0.00 | 39 | 1012.7 |
| 20260902205006 | 96 | 45 | 13.0 | 13.0 | 0.00 | 0.00 | 0.00 | 39 | 1013.0 |
| 20260902204506 | 95 | 46 | 4.3 | 13.0 | 0.00 | 0.00 | 0.00 | 39 | 1013.1 |
| 20260902204006 | 95 | 62 | 10.4 | 13.0 | 0.00 | 0.00 | 0.00 | 40 | 1013.1 |
| 20260902203506 | 96 | 91 | 5.2 | 12.2 | 0.00 | 0.00 | 0.00 | 39 | 1013.2 |
| 20260902203006 | 95 | 48 | 6.1 | 15.6 | 0.00 | 0.00 | 0.00 | 39 | 1013.2 |
| 20260902202505 | 96 | 84 | 12.2 | 15.6 | 0.00 | 0.00 | 0.00 | 38 | 1013.2 |
| 20260902202006 | 95 | 40 | 7.8 | 14.8 | 0.00 | 0.00 | 0.00 | 40 | 1013.4 |
| 20260902201505 | 95 | 37 | 12.2 | 14.8 | 0.00 | 0.00 | 0.00 | 41 | 1013.4 |
| 20260902201005 | 95 | 47 | 11.3 | 14.8 | 0.00 | 0.00 | 0.00 | 41 | 1013.6 |
| 20260902200505 | 95 | 41 | 10.4 | 10.4 | 0.00 | 0.00 | 0.00 | 40 | 1013.6 |
| 20260902200005 | 96 | 71 | 8.7 | 9.6 | 0.00 | 0.00 | 0.00 | 39 | 1013.7 |
| 20260902195505 | 95 | 147 | 2.6 | 14.8 | 0.00 | 0.00 | 0.00 | 39 | 1013.7 |
| 20260902195005 | 95 | 51 | 9.6 | 15.6 | 0.00 | 0.00 | 0.00 | 40 | 1013.8 |
| 20260902194505 | 95 | 64 | 9.6 | 15.6 | 0.00 | 0.00 | 0.00 | 40 | 1013.9 |
| 20260902194035 | 95 | 105 | 7.8 | 13.0 | 0.00 | 0.00 | 0.00 | 39 | 1014.0 |
| 20260902193505 | 96 | 103 | 11.3 | 16.5 | 0.00 | 0.00 | 0.00 | 39 | 1013.9 |
| 20260902193005 | 94 | 114 | 2.6 | 16.5 | 0.00 | 0.00 | 0.00 | 40 | 1014.1 |
| 20260902192504 | 95 | 62 | 13.9 | 15.6 | 0.00 | 0.00 | 0.00 | 39 | 1014.2 |
| 20260902192004 | 94 | 57 | 2.6 | 10.4 | 0.00 | 0.00 | 0.00 | 41 | 1014.3 |
| 20260902191504 | 95 | 79 | 7.8 | 15.6 | 0.00 | 0.00 | 0.00 | 40 | 1014.4 |
| 20260902191005 | 95 | 56 | 7.0 | 15.6 | 0.00 | 0.00 | 0.00 | 41 | 1014.4 |
| 20260902190004 | 94 | 57 | 7.8 | 10.4 | 0.00 | 0.00 | 0.00 | 43 | 1014.6 |
| 20260902185505 | 94 | 116 | 7.0 | 9.6 | 0.00 | 0.00 | 0.00 | 42 | 1014.7 |
| 20260902185004 | 94 | 123 | 2.6 | 13.0 | 0.00 | 0.00 | 0.00 | 43 | 1014.8 |
| 20260902184504 | 93 | 79 | 4.3 | 13.0 | 0.00 | 0.00 | 0.00 | 43 | 1014.8 |
| 20260902184004 | 93 | 70 | 6.1 | 11.3 | 0.00 | 0.00 | 0.00 | 44 | 1014.9 |
| 20260902183504 | 93 | 103 | 9.6 | 13.0 | 0.00 | 0.00 | 0.00 | 45 | 1014.9 |
| 20260902183004 | 94 | 114 | 8.7 | 13.0 | 0.00 | 0.00 | 0.00 | 44 | 1015.0 |
| 20260902182004 | 93 | 136 | 6.1 | 10.4 | 0.00 | 0.00 | 0.00 | 44 | 1015.2 |
| 20260902181504 | 94 | 52 | 1.7 | 12.2 | 0.00 | 0.00 | 0.00 | 43 | 1015.3 |
| 20260902181004 | 92 | 65 | 4.3 | 12.2 | 0.00 | 0.00 | 0.00 | 45 | 1015.4 |
| 20260902180504 | 93 | 75 | 3.5 | 12.2 | 0.00 | 0.00 | 0.00 | 43 | 1015.5 |
| 20260902175004 | 93 | 76 | 10.4 | 13.0 | 0.00 | 0.00 | 0.00 | 44 | 1015.6 |
| 20260902174503 | 93 | 94 | 7.8 | 12.2 | 0.00 | 0.00 | 0.00 | 45 | 1015.8 |
| 20260902174003 | 93 | 89 | 5.2 | 10.4 | 0.00 | 0.00 | 0.00 | 45 | 1015.8 |
| 20260902173504 | 92 | 149 | 7.8 | 13.0 | 0.00 | 0.00 | 0.00 | 45 | 1015.8 |
| 20260902173003 | 92 | 87 | 7.0 | 13.0 | 0.00 | 0.00 | 0.00 | 46 | 1016.0 |
| 20260902172004 | 92 | 217 | 2.6 | 13.0 | 0.00 | 0.00 | 0.00 | 47 | 1016.1 |
| 20260902171503 | 91 | 56 | 5.2 | 13.0 | 0.00 | 0.00 | 0.00 | 49 | 1016.2 |
| 20260902171033 | 91 | 62 | 10.4 | 13.0 | 0.00 | 0.00 | 0.00 | 48 | 1016.2 |
| 20260902170503 | 92 | 86 | 9.6 | 9.6 | 0.00 | 0.00 | 0.00 | 47 | 1016.2 |
| 20260902170003 | 91 | 15 | 1.7 | 10.4 | 0.00 | 0.00 | 0.00 | 47 | 1016.4 |
| 20260902165503 | 91 | 100 | 6.1 | 10.4 | 0.00 | 0.00 | 0.00 | 47 | 1016.4 |
| 20260902165003 | 91 | 118 | 7.0 | 12.2 | 0.00 | 0.00 | 0.00 | 47 | 1016.4 |
| 20260902164504 | 91 | 41 | 8.7 | 12.2 | 0.00 | 0.00 | 0.00 | 47 | 1016.5 |
| 20260902164003 | 91 | 138 | 9.6 | 11.3 | 0.00 | 0.00 | 0.00 | 47 | 1016.5 |
| 20260902163503 | 92 | 135 | 6.1 | 8.7 | 0.00 | 0.00 | 0.00 | 46 | 1016.6 |
| 20260902163004 | 90 | 160 | 3.5 | 9.6 | 0.00 | 0.00 | 0.00 | 47 | 1016.7 |
| 20260902162504 | 91 | 133 | 7.8 | 9.6 | 0.00 | 0.00 | 0.00 | 47 | 1016.7 |
| 20260902162004 | 90 | 133 | 5.2 | 7.8 | 0.00 | 0.00 | 0.00 | 49 | 1016.7 |
| 20260902161503 | 91 | 160 | 5.2 | 7.8 | 0.00 | 0.00 | 0.00 | 48 | 1016.7 |
| 20260902161003 | 90 | 97 | 4.3 | 7.8 | 0.00 | 0.00 | 0.00 | 49 | 1016.7 |
| 20260902160503 | 90 | 83 | 0.9 | 6.1 | 0.00 | 0.00 | 0.00 | 50 | 1016.7 |
| 20260902160004 | 90 | 112 | 4.3 | 9.6 | 0.00 | 0.00 | 0.00 | 50 | 1016.8 |
| 20260902155503 | 89 | 111 | 5.2 | 9.6 | 0.00 | 0.00 | 0.00 | 49 | 1016.9 |
| 20260902155003 | 90 | 103 | 8.7 | 8.7 | 0.00 | 0.00 | 0.00 | 51 | 1016.8 |
| 20260902154503 | 90 | 90 | 7.0 | 8.7 | 0.00 | 0.00 | 0.00 | 51 | 1016.8 |
| 20260902153503 | 88 | 89 | 3.5 | 9.6 | 0.00 | 0.00 | 0.00 | 53 | 1016.8 |
| 20260902153003 | 88 | 118 | 9.6 | 9.6 | 0.00 | 0.00 | 0.00 | 53 | 1016.8 |
| 20260902152502 | 88 | 138 | 2.6 | 9.6 | 0.00 | 0.00 | 0.00 | 54 | 1016.8 |
| 20260902152003 | 87 | 126 | 4.3 | 9.6 | 0.00 | 0.00 | 0.00 | 55 | 1016.7 |
| 20260902151502 | 87 | 153 | 8.7 | 8.7 | 0.00 | 0.00 | 0.00 | 55 | 1016.6 |
| 20260902151003 | 88 | 157 | 8.7 | 8.7 | 0.00 | 0.00 | 0.00 | 54 | 1016.6 |
| 20260902150035 | 86 | 106 | 6.1 | 12.2 | 0.00 | 0.00 | 0.00 | 56 | 1016.6 |
| 20260902145502 | 86 | 207 | 0.9 | 7.8 | 0.00 | 0.00 | 0.00 | 57 | 1016.6 |
| 20260902145002 | 86 | 164 | 7.8 | 7.8 | 0.00 | 0.00 | 0.00 | 56 | 1016.6 |
| 20260902144032 | 86 | 118 | 5.2 | 8.7 | 0.00 | 0.00 | 0.00 | 58 | 1016.7 |
| 20260902143502 | 86 | 115 | 7.0 | 8.7 | 0.00 | 0.00 | 0.00 | 60 | 1016.6 |
| 20260902143032 | 85 | 106 | 3.5 | 9.6 | 0.00 | 0.00 | 0.00 | 61 | 1016.7 |
| 20260902142502 | 85 | 124 | 7.0 | 9.6 | 0.00 | 0.00 | 0.00 | 61 | 1016.7 |
| 20260902142002 | 84 | 126 | 3.5 | 8.7 | 0.00 | 0.00 | 0.00 | 62 | 1016.7 |
| 20260902141502 | 84 | 160 | 7.0 | 8.7 | 0.00 | 0.00 | 0.00 | 63 | 1016.7 |
| 20260902140502 | 84 | 147 | 7.0 | 8.7 | 0.00 | 0.00 | 0.00 | 63 | 1016.6 |
| 20260902140002 | 84 | 132 | 7.0 | 8.7 | 0.00 | 0.00 | 0.00 | 63 | 1016.6 |
| 20260902135502 | 84 | 131 | 6.1 | 8.7 | 0.00 | 0.00 | 0.00 | 64 | 1016.7 |
| 20260902135002 | 83 | 125 | 4.3 | 8.7 | 0.00 | 0.00 | 0.00 | 65 | 1016.7 |
| 20260902134502 | 83 | 153 | 5.2 | 7.8 | 0.00 | 0.00 | 0.00 | 65 | 1016.7 |
| 20260902133502 | 83 | 129 | 7.0 | 12.2 | 0.00 | 0.00 | 0.00 | 66 | 1016.7 |
| 20260902133002 | 83 | 133 | 7.0 | 7.8 | 0.00 | 0.00 | 0.00 | 66 | 1016.7 |
| 20260902132502 | 82 | 126 | 5.2 | 7.8 | 0.00 | 0.00 | 0.00 | 67 | 1016.7 |
| 20260902132002 | 82 | 108 | 4.3 | 5.2 | 0.00 | 0.00 | 0.00 | 68 | 1016.6 |
| 20260902131502 | 82 | 118 | 4.3 | 5.2 | 0.00 | 0.00 | 0.00 | 68 | 1016.5 |
| 20260902131002 | 82 | 110 | 2.6 | 5.2 | 0.00 | 0.00 | 0.00 | 69 | 1016.4 |
| 20260902130502 | 81 | 109 | 3.5 | 3.5 | 0.00 | 0.00 | 0.00 | 70 | 1016.3 |
| 20260902130002 | 81 | 148 | 2.6 | 2.6 | 0.00 | 0.00 | 0.00 | 70 | 1016.3 |
| 20260902125502 | 80 | 149 | 2.6 | 2.6 | 0.00 | 0.00 | 0.00 | 71 | 1016.3 |
| 20260902125032 | 80 | 150 | 1.7 | 1.7 | 0.00 | 0.00 | 0.00 | 71 | 1016.3 |
| 20260902124532 | 79 | 119 | 0.9 | 1.7 | 0.00 | 0.00 | 0.00 | 72 | 1016.3 |
| 20260902124002 | 79 | 194 | 0.9 | 1.7 | 0.00 | 0.00 | 0.00 | 73 | 1016.3 |
| 20260902123532 | 79 | 301 | 1.7 | 1.7 | 0.00 | 0.00 | 0.00 | 73 | 1016.3 |